Regional Weather Roundup
Issued by NWS

Home | Current Version | Previous Version | Graphics & Text | Print | Product List | Glossary On
Versions: 1 2 3 4 5 6 7 8 9 10 11 12 13 14 15 16 17 18 19 20 21 22 23 24 25 26 27 28 29 30 31 32 33 34 35 36 37 38 39 40 41 42 43 44 45 46 47 48 49 50
000
ASUS43 KFSD 292202
RWRSD

WEATHER ROUNDUP FOR SOUTH DAKOTA
NATIONAL WEATHER SERVICE SIOUX FALLS SD
500 PM CDT TUE JUL 29 2014

NOTE: "FAIR" INDICATES FEW OR NO CLOUDS BELOW 12,000 FEET WITH NO
SIGNIFICANT WEATHER AND/OR OBSTRUCTIONS TO VISIBILITY.


SDZ001>005-009-010-012>017-292300-
NORTHWEST AND NORTH CENTRAL SOUTH DAKOTA

CITY           SKY/WX    TMP DP  RH WIND       PRES   REMARKS
BUFFALO          N/A     82  50  32 VRB3      30.14F
FAITH            N/A     81  50  33 CALM      30.18F
MOBRIDGE       PTSUNNY   79  53  40 NE7       30.14F
$$

SDZ012>016-024>037-041>051-057-063-072>074-292300-
SOUTHWEST AND SOUTH CENTRAL SOUTH DAKOTA

CITY           SKY/WX    TMP DP  RH WIND       PRES   REMARKS
RAPID CTY ARPT PTSUNNY   72  57  59 SE9       30.23F
PIERRE         MOSUNNY   83  50  31 N12G17    30.15F
CUSTER         CLOUDY    63  51  65 S5        30.33F
ELLSWORTH AFB  PTSUNNY   73  55  54 S10       30.23F
PHILIP         MOSUNNY   81  48  31 VRB6      30.17F
PINE RIDGE     CLOUDY    71  56  58 E10       30.22F
WINNER         FAIR      80  46  30 NW3       30.17F
$$

SDZ004>011-016>023-039-040-292300-
NORTHEAST SOUTH DAKOTA

CITY           SKY/WX    TMP DP  RH WIND       PRES   REMARKS
ABERDEEN       PTSUNNY   76  52  43 NE8       30.15F
WATERTOWN      PTSUNNY   75  51  43 NE8       30.16F
SISSETON         N/A     78  54  43 NW5       30.13F
$$

SDZ017-020-022-023-036>040-048>070-292300-
SOUTHEAST SOUTH DAKOTA

CITY           SKY/WX    TMP DP  RH WIND       PRES   REMARKS
SIOUX FALLS    MOSUNNY   75  52  44 N10       30.16F
HURON          MOSUNNY   79  52  38 NE6       30.15F
CHAMBERLAIN    MOSUNNY   79  51  37 N6        30.16F
MITCHELL       SUNNY     79  53  40 N8        30.16F
YANKTON        MOSUNNY   75  52  43 NW3       30.16F
$$

ABBREVIATIONS USED IN REMARKS
   TC - TEMPERATURE IN CELSIUS
  WCI - WIND CHILL INDEX
   HX - HEAT INDEX
  VSB - VISIBILITY




USA.gov is the U.S. government's official web portal to all federal, state and local government web resources and services.